Regional Weather Roundup
Issued by NWS

Home | Current Version | Previous Version | Graphics & Text | Print | Product List | Glossary On
Versions: 1 2 3 4 5 6 7 8 9 10 11 12 13 14 15 16 17 18 19 20 21 22 23 24 25 26 27 28 29 30 31 32 33 34 35 36 37 38 39 40 41 42 43 44 45 46 47 48 49 50
000
ASUS45 KTFX 291804
RWRMT
MONTANA HOURLY WEATHER ROUNDUP
NATIONAL WEATHER SERVICE GREAT FALLS MT
1104 AM MST THU JAN 29 2015

NOTE: "FAIR" INDICATES FEW OR NO CLOUDS BELOW 12000 FEET WITH NO
SIGNIFICANT WEATHER AND/OR OBSTRUCTIONS TO VISIBILITY.

* THESE STATIONS ARE NOT UNDER NWS QUALITY CONTROL. THEY DO NOT
   REPORT WEATHER SUCH AS PRECIPITATION OR FOG.

MTZ001>007-043-291900-
WEST OF THE DIVIDE
CITY           SKY/WX    TMP DP  RH WIND       PRES   REMARKS
KALISPELL      PTSUNNY   19  18  96 NE5       30.43F WCI  12
MISSOULA       PTSUNNY   27  25  92 CALM      30.46F
BUTTE          SUNNY     27  21  78 CALM      30.39F
MULLAN PASS    PTSUNNY   32  21  64 VRB3      30.33R
* ANACONDA     PTCLDY    34  21  59 SE6        N/A   WCI  29
* ESSEX        N/A       23  21  92 N/A        N/A
* LINCOLN      N/A       18  14  84 E1         N/A
* LOOKOUT PASS N/A       26  26 100 SE4        N/A
* POLSON       N/A       30  29  96 S1         N/A
* SEELEY LAKE  N/A       24  20  85 N/A        N/A
* THOMP F APT  PTSUNNY   34  23  64 S1G7       N/A
$$

MTZ008-052>055-291900-
SOUTHWEST MONTANA
CITY           SKY/WX    TMP DP  RH WIND       PRES   REMARKS
BOZEMAN        SUNNY     34  25  70 CALM      30.42F
DILLON         SUNNY     32  25  75 SW8       30.41F WCI  25
* W YELLOWSTON SUNNY     27  20  75 E3         N/A
* THREE FORKS  SUNNY     34   9  35 N/A        N/A
* BOULDER HILL N/A       28  19  69 SW13       N/A   WCI  17
* MONIDA PASS  N/A       23  23 100 NE5        N/A   WCI  16
* RAYNOLDS PAS N/A       22   7  52 S4         N/A
* WHITEHALL    N/A       33  25  72 W4         N/A
* WISE RIVER   N/A       19  14  81 NW5        N/A   WCI  12
$$

MTZ009>010-012-014-046-048-049-054-291900-
EAST SLOPES AND CENTRAL MONTANA
CITY           SKY/WX    TMP DP  RH WIND       PRES   REMARKS
CUT BANK       SUNNY     36  28  73 CALM      30.27S
GREAT FALLS    PTCLDY    41  27  58 SW10      30.31S
HELENA         PTCLDY    34  25  70 CALM      30.40F
MALMSTROM AFB  PTCLDY    41  28  60 SW9       30.32F
* DEARBORN     N/A       43  21  42 S6G13      N/A
* EAST GLACIER N/A       34  21  59 W15G21     N/A   WCI  24
* MONARCH      N/A       39  15  37 S10G15     N/A   WCI  32
* PENDROY      N/A       36  18  48 SW6        N/A   WCI  31
* ROGERS PASS  N/A       31  21  66 E5G12      N/A   WCI  26
* SWEET GRASS  N/A       25  24  96 S9         N/A   WCI  16
$$

MTZ011-013-016-021-035-040-045-047-050-051-291900-
NORTH CENTRAL MONTANA
CITY           SKY/WX    TMP DP  RH WIND       PRES   REMARKS
HAVRE          FOG       27  27 100 CALM      30.34F VSB 3
LEWISTOWN      SUNNY     39  28  65 E5        30.33S WCI  35
* N BAR RANCH  SUNNY     39  25  57 CALM      30.34F
* CHESTER      N/A       26  24  92 N/A        N/A
* DENTON       N/A       39  27  62 SE5        N/A   WCI  35
* GEYSER       N/A       39  23  53 SW2        N/A
* JUDITH GAP   N/A       34  28  79 SE16       N/A   WCI  24
* LOMA         N/A       29  28  96 E2         N/A
$$

MTZ017>020-022>027-061-062-291900-
NORTHEAST MONTANA
CITY           SKY/WX    TMP DP  RH WIND       PRES   REMARKS
GLASGOW        FOG       27  25  92 SE10      30.42F VSB M1/4 WCI  18
GLENDIVE       SUNNY     30  25  82 S6        30.48S WCI  24
JORDAN         SUNNY     36  30  79 E3        30.41F
SIDNEY         PTCLDY    28  21  75 SW3       30.51S
WOLF POINT     FOG       27  25  92 CALM      30.47F
* BEAVER HILL  N/A       30  22  72 SW8        N/A   WCI  22
* CIRCLE       N/A       30  29  96 N/A        N/A
* LINDSAY DVD  N/A       32  26  79 E4         N/A
* NAVAJO       N/A       23  18  81 E3         N/A
* SACO         N/A       25  24  96 NE7        N/A   WCI  17
$$

MTZ028>042-056>058-291900-
SOUTHCENTRAL AND SOUTHEAST MONTANA
CITY           SKY/WX    TMP DP  RH WIND       PRES   REMARKS
BAKER          SUNNY     32  27  82 NW7       30.46F WCI  25
BILLINGS       SUNNY     37  25  62 SW10      30.40S WCI  30
LIVINGSTON     SUNNY     43  21  42 SW13G29   30.35F
MILES CITY     SUNNY     32  28  85 S7        30.46S WCI  25
* LAUREL APT   SUNNY     37  23  57 N/A        N/A
* ROUNDUP APT  SUNNY     34  25  70 S8         N/A   WCI  27
* ALZADA       N/A       38  26  62 W9         N/A   WCI  32
* HYSHAM       N/A       43  22  43 SE4        N/A
* LAME DEER    N/A       38  20  48 S9         N/A   WCI  32
* REED POINT   N/A       33  27  79 W1         N/A
* ROSCOE HILL  N/A       39  13  34 VRB2       N/A
$$

REGIONAL REPORTS...DAKOTAS
CITY           SKY/WX    TMP DP  RH WIND       PRES   REMARKS
WILLISTON      CLOUDY    25  18  75 CALM      30.50S
DICKINSON      PTCLDY    32  21  64 NW14      30.43S WCI  22
CROSBY         CLOUDY    21  19  92 NW3       30.50R
WATFORD CITY   PTSUNNY   25  19  78 NW7       30.47S WCI  17
BISMARCK       CLOUDY    28  19  69 N8        30.50R WCI  20
GRAND FORKS    LGT SNOW  12   7  80 N18       30.52R VSB 1 3/4 WCI  -5
FARGO          CLOUDY    18   7  62 N22       30.50R WCI   1
BUFFALO SD     SUNNY     36  21  54 W10       30.40S WCI  29
RAPID CITY     SUNNY     39  16  39 CALM      30.47S
$$

REGIONAL REPORTS...WYOMING/IDAHO/WASHINGTON
CITY           SKY/WX    TMP DP  RH WIND       PRES   REMARKS
GILLETTE       SUNNY     41  19  41 SW6       30.44F
SHERIDAN       SUNNY     37  25  62 CALM      30.41F
CODY           SUNNY     39  23  53 SW12      30.39F WCI  32
YELLOWSTONE LA SUNNY     18  18 100 CALM      30.44F
SALMON         CLOUDY   N/A N/A N/A CALM      30.49S
MULLAN PASS    PTSUNNY   32  21  64 VRB3      30.33S
SAND POINT     FOG       32  32 100 CALM      30.47S VSB 2
SPOKANE        FOG       30  30 100 NE8       30.42S VSB M1/4 WCI  22
$$

REGIONAL REPORTS...SASKATCHEWAN
CITY           SKY/WX    TMP DP  RH WIND       PRES   REMARKS
SWIFT CURRENT  FOG       21  21 100 SE14G20   30.34F WCI   8

$$




USA.gov is the U.S. government's official web portal to all federal, state and local government web resources and services.